TimeCDT,TemperatureF,Dew PointF,Humidity,Sea Level PressureIn,VisibilityMPH,Wind Direction,Wind SpeedMPH,Gust SpeedMPH,PrecipitationIn,Events,Conditions,WindDirDegrees,DateUTC
12:15 AM,37.4,30.2,75,29.81,10.0,SSW,3.5,-,N/A,,Clear,210,2013-04-12 05:15:00
12:35 AM,35.6,30.2,81,29.80,10.0,SW,3.5,-,N/A,,Clear,220,2013-04-12 05:35:00
12:55 AM,37.4,28.4,70,29.80,10.0,SSW,3.5,-,N/A,,Clear,210,2013-04-12 05:55:00
1:15 AM,35.6,28.4,75,29.81,10.0,South,4.6,-,N/A,,Clear,190,2013-04-12 06:15:00
1:35 AM,35.6,28.4,75,29.80,10.0,South,3.5,-,N/A,,Clear,190,2013-04-12 06:35:00
1:55 AM,35.6,28.4,75,29.80,10.0,Calm,Calm,-,N/A,,Clear,0,2013-04-12 06:55:00
2:15 AM,37.4,30.2,75,29.80,10.0,SW,3.5,-,N/A,,Clear,220,2013-04-12 07:15:00
2:35 AM,35.6,30.2,81,29.80,10.0,SW,4.6,-,N/A,,Clear,220,2013-04-12 07:35:00
2:55 AM,35.6,28.4,75,29.79,10.0,SW,4.6,-,N/A,,Clear,220,2013-04-12 07:55:00
3:15 AM,35.6,28.4,75,29.79,10.0,SW,4.6,-,N/A,,Clear,230,2013-04-12 08:15:00
3:35 AM,35.6,28.4,75,29.80,10.0,WSW,4.6,-,N/A,,Clear,240,2013-04-12 08:35:00
3:55 AM,35.6,28.4,75,29.81,10.0,Calm,Calm,-,N/A,,Clear,0,2013-04-12 08:55:00
4:15 AM,35.6,28.4,75,29.82,10.0,WSW,4.6,-,N/A,,Clear,240,2013-04-12 09:15:00
4:35 AM,35.6,30.2,81,29.83,10.0,West,6.9,-,N/A,,Clear,280,2013-04-12 09:35:00
4:55 AM,35.6,28.4,75,29.84,10.0,WNW,3.5,-,N/A,,Clear,300,2013-04-12 09:55:00
5:15 AM,35.6,28.4,75,29.85,10.0,NW,4.6,-,N/A,,Clear,310,2013-04-12 10:15:00
5:35 AM,37.4,28.4,70,29.86,10.0,NNW,5.8,-,N/A,,Clear,330,2013-04-12 10:35:00
5:55 AM,37.4,28.4,70,29.86,10.0,NNW,6.9,-,N/A,,Clear,330,2013-04-12 10:55:00
6:15 AM,37.4,28.4,70,29.87,10.0,NNW,8.1,-,N/A,,Clear,330,2013-04-12 11:15:00
6:35 AM,37.4,28.4,70,29.87,10.0,NNW,6.9,-,N/A,,Clear,330,2013-04-12 11:35:00
6:55 AM,37.4,26.6,65,29.88,10.0,NW,5.8,-,N/A,,Clear,320,2013-04-12 11:55:00
7:15 AM,37.4,26.6,65,29.89,10.0,NW,6.9,-,N/A,,Clear,320,2013-04-12 12:15:00
7:35 AM,37.4,26.6,65,29.90,10.0,NW,5.8,-,N/A,,Clear,310,2013-04-12 12:35:00
7:55 AM,37.4,28.4,70,29.91,10.0,WNW,8.1,-,N/A,,Clear,300,2013-04-12 12:55:00
8:15 AM,37.4,26.6,65,29.91,10.0,NW,9.2,-,N/A,,Clear,310,2013-04-12 13:15:00
8:35 AM,39.2,26.6,61,29.92,10.0,WNW,10.4,-,N/A,,Clear,300,2013-04-12 13:35:00
8:55 AM,39.2,26.6,61,29.93,10.0,NW,11.5,17.3,N/A,,Clear,320,2013-04-12 13:55:00
9:15 AM,41.0,26.6,57,29.94,10.0,NW,13.8,-,N/A,,Clear,320,2013-04-12 14:15:00
9:55 AM,42.8,26.6,53,29.94,10.0,WNW,13.8,18.4,N/A,,Clear,300,2013-04-12 14:55:00
10:15 AM,42.8,26.6,53,29.95,10.0,NW,13.8,-,N/A,,Clear,310,2013-04-12 15:15:00
10:35 AM,42.8,28.4,57,29.96,10.0,WNW,16.1,-,N/A,,Clear,290,2013-04-12 15:35:00
10:55 AM,44.6,26.6,49,29.97,10.0,NW,11.5,20.7,N/A,,Clear,310,2013-04-12 15:55:00
11:15 AM,44.6,26.6,49,29.97,10.0,WNW,16.1,21.9,N/A,,Clear,300,2013-04-12 16:15:00
11:35 AM,46.4,28.4,50,29.98,10.0,WNW,13.8,17.3,N/A,,Clear,300,2013-04-12 16:35:00
11:55 AM,46.4,28.4,50,29.99,10.0,WNW,11.5,-,N/A,,Clear,290,2013-04-12 16:55:00
12:15 PM,46.4,30.2,53,29.98,10.0,WNW,11.5,17.3,N/A,,Clear,300,2013-04-12 17:15:00
12:35 PM,48.2,30.2,50,29.98,10.0,NW,16.1,-,N/A,,Clear,320,2013-04-12 17:35:00
12:55 PM,48.2,32.0,54,29.98,10.0,West,10.4,17.3,N/A,,Clear,280,2013-04-12 17:55:00
1:15 PM,50.0,30.2,47,29.98,10.0,WNW,10.4,16.1,N/A,,Clear,290,2013-04-12 18:15:00
1:35 PM,51.8,32.0,47,29.98,10.0,WNW,9.2,-,N/A,,Clear,300,2013-04-12 18:35:00
1:55 PM,51.8,30.2,44,29.98,10.0,NW,8.1,16.1,N/A,,Clear,310,2013-04-12 18:55:00
2:15 PM,51.8,33.8,50,29.98,10.0,West,10.4,-,N/A,,Clear,270,2013-04-12 19:15:00
2:35 PM,53.6,32.0,44,29.98,10.0,WNW,12.7,18.4,N/A,,Clear,290,2013-04-12 19:35:00
2:55 PM,53.6,32.0,44,29.97,10.0,WNW,15.0,20.7,N/A,,Clear,300,2013-04-12 19:55:00
3:15 PM,53.6,33.8,47,29.97,10.0,WNW,11.5,17.3,N/A,,Clear,300,2013-04-12 20:15:00
3:35 PM,53.6,32.0,44,29.97,10.0,West,12.7,-,N/A,,Clear,280,2013-04-12 20:35:00
3:55 PM,53.6,32.0,44,29.96,10.0,NW,12.7,-,N/A,,Clear,310,2013-04-12 20:55:00
4:15 PM,55.4,33.8,44,29.96,10.0,WNW,12.7,18.4,N/A,,Clear,290,2013-04-12 21:15:00
4:35 PM,55.4,33.8,44,29.96,10.0,West,10.4,-,N/A,,Clear,280,2013-04-12 21:35:00
4:55 PM,53.6,32.0,44,29.96,10.0,NW,6.9,16.1,N/A,,Clear,320,2013-04-12 21:55:00
5:15 PM,55.4,32.0,41,29.95,10.0,NW,10.4,-,N/A,,Clear,320,2013-04-12 22:15:00
5:35 PM,55.4,33.8,44,29.94,10.0,NW,10.4,-,N/A,,Clear,320,2013-04-12 22:35:00
5:55 PM,55.4,33.8,44,29.95,10.0,NW,8.1,-,N/A,,Clear,320,2013-04-12 22:55:00
6:15 PM,55.4,32.0,41,29.96,10.0,WNW,6.9,-,N/A,,Clear,300,2013-04-12 23:15:00
6:35 PM,53.6,33.8,47,29.96,10.0,WNW,6.9,-,N/A,,Clear,290,2013-04-12 23:35:00
6:55 PM,53.6,33.8,47,29.96,10.0,WNW,5.8,-,N/A,,Clear,300,2013-04-12 23:55:00
7:15 PM,53.6,33.8,47,29.96,10.0,WNW,6.9,-,N/A,,Clear,290,2013-04-13 00:15:00
7:35 PM,51.8,33.8,50,29.96,10.0,WNW,4.6,-,N/A,,Clear,290,2013-04-13 00:35:00
7:55 PM,51.8,33.8,50,29.97,10.0,WNW,6.9,-,N/A,,Clear,290,2013-04-13 00:55:00
8:15 PM,50.0,33.8,54,29.97,10.0,WNW,4.6,-,N/A,,Clear,290,2013-04-13 01:15:00
8:35 PM,48.2,33.8,58,29.97,10.0,Calm,Calm,-,N/A,,Clear,0,2013-04-13 01:35:00
8:55 PM,50.0,33.8,54,29.97,10.0,North,4.6,-,N/A,,Clear,360,2013-04-13 01:55:00
9:15 PM,48.2,32.0,54,29.97,10.0,North,3.5,-,N/A,,Clear,350,2013-04-13 02:15:00
9:35 PM,48.2,33.8,58,29.98,10.0,NNW,4.6,-,N/A,,Clear,330,2013-04-13 02:35:00
9:55 PM,48.2,33.8,58,29.99,10.0,Calm,Calm,-,N/A,,Clear,0,2013-04-13 02:55:00
10:15 PM,50.0,33.8,54,30.00,10.0,NNW,3.5,-,N/A,,Partly Cloudy,340,2013-04-13 03:15:00
10:35 PM,48.2,32.0,54,30.00,10.0,Calm,Calm,-,N/A,,Clear,0,2013-04-13 03:35:00
10:55 PM,48.2,33.8,58,30.01,10.0,Calm,Calm,-,N/A,,Clear,0,2013-04-13 03:55:00
11:15 PM,48.2,33.8,58,30.01,10.0,North,3.5,-,N/A,,Clear,10,2013-04-13 04:15:00
11:35 PM,48.2,33.8,58,30.02,10.0,North,4.6,-,N/A,,Clear,360,2013-04-13 04:35:00
11:55 PM,48.2,35.6,62,30.02,10.0,North,5.8,-,N/A,,Clear,10,2013-04-13 04:55:00